Wind_Speed
34 35 36 37 38 39 40 41 42 41 42 42 42 43 43 44 43 43 44 44 44 44 44 44 44 44 44 45 46 47 47 47 48 47 47 47 47 47 47 47 47 47 47
34 35 36 37 38 39 40 41 42 42 42 43 43 44 44 44 44 45 45 46 46 46 45 45 45 46 46 47 47 48 48 48 48 48 48 47 47 47 47 48 48 48 48
35 36 37 38 39 40 41 42 42 43 43 44 44 45 45 45 46 47 47 47 47 47 47 47 47 47 47 48 48 48 49 49 48 48 48 48 48 48 48 48 48 48 48
36 37 38 39 40 41 42 42 43 43 44 44 44 44 45 46 47 47 47 47 48 48 48 48 48 48 48 48 48 48 48 48 48 48 48 48 48 49 48 48 48 48 47
37 38 38 39 40 41 42 44 44 45 45 45 45 46 47 47 48 48 48 49 49 49 49 49 49 49 48 48 48 48 48 48 48 48 48 49 49 49 49 49 48 48 48
38 39 40 40 41 41 43 44 45 45 46 46 46 46 47 48 48 48 48 48 48 49 49 49 49 48 48 48 48 48 48 48 49 49 49 49 49 49 49 49 49 49 49
39 40 41 41 42 43 43 45 46 46 47 47 46 46 46 47 47 47 47 47 47 48 49 49 49 49 49 49 49 49 49 49 49 49 49 49 49 49 49 49 49 49 49
39 40 42 43 43 44 45 45 46 46 46 46 45 46 46 46 47 47 46 46 47 48 49 49 49 50 50 50 49 49 49 49 49 50 50 50 49 49 50 50 49 49 49
39 40 41 42 43 44 45 45 45 45 45 45 45 46 46 46 47 47 47 47 48 49 50 50 50 51 51 51 50 49 49 49 50 51 50 50 50 50 50 50 49 49 49
40 40 41 42 43 44 45 45 45 45 45 45 46 46 47 47 48 48 48 48 49 49 49 50 50 50 50 50 49 49 49 49 50 50 50 49 49 49 49 49 48 48 47
40 41 42 42 43 44 45 45 45 45 45 46 46 47 47 48 49 50 50 50 50 49 49 49 49 49 49 49 49 48 48 49 49 49 48 47 47 47 47 47 47 46 46
41 42 42 43 44 44 45 45 45 45 46 46 47 48 48 49 49 49 49 49 49 49 49 49 48 48 48 48 48 48 48 48 48 47 46 46 46 46 47 46 46 45 45
42 43 44 44 45 45 45 45 46 47 47 48 48 48 48 49 49 49 49 49 49 48 48 48 47 47 47 47 47 47 47 47 46 46 45 45 45 45 46 45 45 44 44
44 44 45 45 46 46 46 46 47 48 49 50 50 49 49 49 49 49 48 48 47 47 46 46 46 46 47 46 46 46 46 45 45 44 44 44 44 44 43 43 42 42 42
45 45 46 46 47 46 46 47 48 49 50 50 50 50 49 49 49 48 48 47 46 45 45 45 45 45 45 45 45 45 44 44 43 43 42 42 42 41 41 41 41 41 41
46 46 46 47 47 47 48 48 49 50 50 51 51 50 49 49 48 47 47 46 45 45 45 45 45 44 43 43 43 43 42 42 42 41 40 40 40 40 39 39 39 40 40
46 46 47 48 48 49 49 50 50 50 50 50 50 50 49 48 47 46 46 46 46 45 45 44 43 43 42 42 42 41 41 40 40 39 39 38 38 38 37 38 38 39 38
47 48 49 50 50 51 51 52 52 51 50 49 49 49 48 47 46 45 45 45 45 44 44 43 42 42 41 40 40 40 39 38 38 37 37 37 36 36 36 37 38 38 38
49 50 51 51 52 53 53 53 53 52 51 49 49 48 47 46 45 45 45 45 44 43 42 41 40 40 39 38 38 37 37 36 36 36 35 35 36 36 36 37 37 37 37
50 51 52 53 53 54 54 53 52 51 50 49 48 47 46 45 44 44 44 44 42 41 40 39 39 38 37 36 36 35 35 34 34 34 34 35 35 35 36 37 36 36 36
52 53 53 54 54 53 53 52 51 50 49 48 47 46 45 44 43 43 42 41 40 40 39 38 38 37 36 35 35 34 34 34 33 33 34 34 34 35 35 35 35 35 35
54 54 54 54 53 52 52 51 50 49 48 47 46 45 44 43 42 41 39 38 38 38 37 36 36 36 35 34 34 33 33 33 33 33 33 33 33 33 33 33 33 33 33
54 54 54 53 52 51 50 49 48 47 46 45 45 43 42 41 40 38 37 36 36 36 35 35 34 34 34 33 33 32 32 32 32 32 32 32 31 31 31 31 31 31 31
54 53 52 51 50 49 48 47 46 46 44 43 42 41 40 38 37 36 35 35 35 34 34 33 32 32 32 31 31 31 31 31 31 31 31 30 30 29 29 30 30 29 29
52 51 50 48 47 47 46 45 44 44 43 42 41 39 38 36 35 34 34 33 33 32 31 31 30 30 29 29 29 29 29 29 29 29 29 28 28 28 28 28 28 28 29
48 47 46 46 45 45 44 43 43 42 42 40 38 36 35 33 32 32 31 31 30 29 28 28 28 28 27 27 28 28 28 28 28 27 27 27 27 26 26 26 26 27 27
Wind_Direction
272 273 273 274 276 278 279 280 282 282 282 282 281 281 282 282 283 283 284 285 286 285 285 285 285 284 284 284 284 284 283 283 283 283 283 283 282 283 282 282 283 282 282
274 275 276 277 278 280 281 282 283 283 283 282 282 282 282 282 283 283 284 285 285 285 285 285 285 285 285 285 285 284 284 284 284 283 283 283 283 283 283 282 282 282 282
276 277 277 278 280 281 282 283 283 284 285 284 283 282 282 283 283 284 284 285 285 285 285 285 285 285 285 285 285 285 284 284 284 283 283 282 282 282 282 282 282 282 283
278 279 279 280 281 282 284 285 285 286 286 285 284 283 283 283 284 284 285 285 285 285 285 285 285 286 286 286 285 285 285 284 284 283 283 282 282 282 282 282 282 283 283
280 281 281 282 283 284 285 286 286 286 286 286 285 285 285 285 285 284 284 284 284 284 285 285 286 286 286 285 285 285 284 284 284 283 283 283 283 282 282 282 282 282 283
282 282 282 284 286 287 287 287 287 287 287 287 287 286 286 286 286 285 285 285 284 284 285 285 285 285 285 285 285 285 284 284 284 284 283 283 283 282 282 282 282 282 282
284 284 285 286 287 288 288 288 288 288 288 288 287 287 286 286 285 285 285 285 285 285 285 285 286 286 286 286 285 285 285 284 284 283 283 283 282 282 282 282 282 282 282
288 288 288 287 288 289 289 289 289 289 289 288 288 287 287 286 286 286 285 285 285 285 285 286 286 286 286 286 286 285 285 284 284 284 284 283 283 282 282 283 282 282 282
291 291 291 290 290 290 290 290 289 289 288 288 288 288 287 286 286 286 286 286 286 286 286 286 286 286 286 286 285 285 284 284 284 284 284 283 283 283 284 284 284 283 283
292 293 293 292 292 292 292 291 290 290 289 288 288 288 287 287 286 286 286 287 287 286 286 287 286 286 286 285 285 284 284 284 284 284 284 284 283 283 284 284 285 284 284
294 294 294 294 294 294 294 293 291 291 290 289 288 288 288 288 287 287 287 288 287 286 286 287 287 286 285 285 285 284 284 284 284 284 284 284 283 283 284 285 285 285 285
294 294 295 295 295 295 294 293 292 292 292 291 290 290 289 288 288 288 288 288 288 287 286 286 286 286 286 285 286 285 285 285 285 284 284 284 284 284 284 284 285 285 285
293 294 295 295 296 295 295 294 293 293 293 293 292 291 290 290 289 288 288 289 289 288 287 286 286 286 286 286 286 285 285 285 285 284 284 283 284 284 284 285 285 285 285
293 294 294 295 296 296 296 295 295 295 294 293 293 292 291 290 290 289 289 289 289 289 288 287 287 286 286 286 286 285 285 285 284 284 284 284 283 283 284 284 284 285 286
293 294 294 295 296 297 297 297 297 296 296 295 294 293 292 291 290 289 289 289 289 289 289 288 288 287 287 286 286 286 286 285 284 284 284 284 284 284 284 284 284 285 286
294 294 295 296 297 297 297 298 298 298 297 296 295 293 292 291 290 289 289 289 289 290 290 289 289 288 287 287 286 286 286 285 285 285 285 285 284 284 284 284 285 285 286
294 295 296 296 297 297 298 298 298 298 298 297 296 295 293 292 291 289 289 289 289 289 289 289 288 288 288 287 287 286 286 285 284 284 284 284 285 285 285 285 285 286 287
295 296 296 297 297 297 298 298 298 298 297 296 295 294 293 293 292 290 289 289 289 288 288 288 288 288 288 287 287 286 285 285 284 284 284 284 285 285 286 286 286 287 287
296 296 297 297 297 298 298 299 299 298 298 296 295 294 293 293 292 291 289 289 288 287 287 287 287 287 287 286 286 285 285 284 284 284 284 284 285 286 286 287 287 287 288
296 297 297 297 298 298 299 299 298 298 298 297 295 294 293 292 292 291 290 288 287 286 286 285 285 286 286 286 286 285 284 284 284 284 285 285 286 286 287 287 287 288 289
297 297 298 298 298 299 299 299 299 298 297 297 295 294 293 292 291 291 289 288 286 286 285 285 284 284 284 284 284 284 284 284 285 286 286 286 286 287 287 287 287 288 289
297 298 298 298 298 298 299 299 299 298 297 296 295 294 293 292 291 290 289 288 287 287 286 285 284 283 283 284 284 284 284 284 285 286 287 287 288 288 288 288 288 289 289
298 298 298 298 298 298 298 299 299 298 297 296 294 293 292 291 290 289 287 287 287 286 285 284 283 283 283 283 283 283 283 284 285 286 286 287 288 287 288 289 289 290 290
298 298 298 297 297 297 298 298 298 298 297 296 295 293 292 290 289 287 287 287 286 285 284 283 283 283 282 282 283 283 284 285 285 285 286 286 286 287 288 289 290 290 290
298 298 298 297 297 297 297 298 298 298 298 296 294 293 291 289 288 287 287 287 286 285 284 283 283 282 282 282 283 283 284 284 285 285 285 286 286 287 289 291 291 291 292
298 298 298 298 298 298 298 298 298 298 297 296 294 292 291 289 288 289 289 288 286 284 284 283 282 282 281 282 283 283 284 284 285 284 285 286 287 289 291 292 293 293 294
Height
5706 5705 5704 5704 5703 5702 5700 5699 5698 5696 5694 5692 5690 5688 5686 5684 5682 5681 5679 5677 5674 5672 5670 5668 5666 5664 5662 5660 5658 5656 5654 5653 5652 5650 5648 5646 5644 5642 5640 5639 5637 5635 5633
5697 5696 5696 5695 5693 5692 5691 5689 5687 5685 5683 5681 5679 5677 5675 5673 5671 5669 5667 5665 5663 5661 5658 5656 5654 5652 5650 5647 5645 5643 5641 5639 5638 5637 5635 5632 5631 5629 5627 5625 5624 5622 5620
5689 5688 5686 5685 5684 5682 5680 5678 5676 5674 5672 5669 5667 5665 5663 5661 5659 5657 5655 5653 5651 5649 5646 5644 5642 5639 5637 5635 5632 5630 5628 5626 5624 5623 5621 5619 5617 5615 5614 5612 5610 5608 5606
5680 5679 5677 5675 5673 5671 5669 5667 5665 5663 5660 5658 5656 5653 5651 5649 5647 5645 5643 5641 5638 5636 5634 5631 5629 5626 5624 5621 5619 5616 5614 5612 5610 5609 5607 5606 5604 5601 5600 5598 5596 5594 5592
5671 5669 5667 5665 5663 5661 5659 5656 5654 5651 5649 5646 5644 5641 5639 5637 5635 5632 5630 5628 5625 5623 5620 5618 5615 5613 5610 5608 5606 5603 5601 5599 5596 5594 5593 5591 5589 5587 5586 5584 5582 5580 5577
5661 5659 5657 5655 5652 5650 5647 5645 5642 5639 5637 5634 5631 5629 5626 5624 5621 5619 5617 5614 5612 5610 5607 5604 5602 5599 5597 5594 5592 5589 5587 5585 5583 5580 5579 5577 5575 5573 5571 5569 5567 5566 5564
5651 5649 5646 5644 5641 5638 5636 5633 5630 5627 5624 5622 5619 5616 5613 5610 5608 5605 5603 5601 5598 5596 5593 5590 5588 5585 5583 5580 5578 5576 5573 5570 5568 5566 5564 5562 5560 5559 5557 5555 5553 5551 5549
5640 5638 5635 5632 5630 5627 5624 5621 5618 5615 5612 5609 5606 5603 5600 5597 5594 5592 5589 5587 5585 5582 5579 5577 5574 5571 5569 5566 5564 5561 5559 5556 5554 5551 5550 5548 5546 5544 5542 5540 5538 5536 5534
5630 5627 5624 5621 5618 5615 5612 5609 5605 5602 5599 5596 5593 5590 5588 5585 5581 5579 5576 5574 5571 5568 5565 5562 5560 5557 5554 5552 5549 5547 5545 5542 5539 5537 5535 5533 5531 5529 5527 5525 5523 5521 5520
5619 5616 5613 5609 5606 5603 5600 5596 5593 5589 5586 5583 5581 5577 5574 5572 5568 5565 5562 5560 5558 5555 5551 5548 5545 5542 5539 5537 5534 5532 5530 5528 5525 5523 5520 5518 5516 5514 5512 5510 5508 5506 5504
5608 5605 5601 5598 5594 5591 5587 5584 5580 5577 5574 5571 5568 5564 5561 5558 5555 5551 5548 5545 5543 5540 5537 5534 5531 5528 5525 5522 5520 5518 5515 5513 5511 5508 5506 5504 5501 5499 5497 5495 5494 5492 5490
5597 5594 5590 5586 5582 5579 5575 5571 5568 5564 5561 5558 5554 5551 5547 5544 5540 5537 5534 5531 5528 5525 5522 5519 5516 5513 5510 5508 5505 5503 5500 5498 5496 5494 5492 5490 5487 5485 5483 5481 5479 5477 5475
5586 5582 5579 5575 5571 5567 5563 5559 5555 5551 5548 5544 5541 5537 5534 5530 5526 5522 5519 5516 5513 5510 5508 5505 5502 5499 5496 5494 5491 5489 5486 5484 5482 5480 5478 5476 5474 5471 5469 5468 5465 5464 5461
5574 5571 5567 5563 5559 5554 5550 5546 5542 5538 5534 5530 5526 5523 5519 5516 5512 5508 5505 5502 5499 5496 5493 5491 5488 5485 5482 5480 5477 5475 5472 5470 5468 5467 5465 5463 5460 5458 5456 5454 5452 5451 5449
5562 5559 5555 5551 5547 5542 5538 5533 5529 5524 5519 5515 5511 5508 5504 5501 5497 5494 5491 5488 5485 5482 5479 5477 5474 5472 5469 5466 5464 5461 5459 5457 5455 5453 5451 5449 5447 5445 5443 5442 5440 5438 5437
5550 5546 5542 5538 5533 5529 5525 5521 5515 5510 5506 5501 5496 5493 5489 5486 5483 5479 5477 5474 5471 5468 5466 5463 5461 5458 5455 5453 5451 5448 5446 5444 5442 5440 5439 5437 5435 5433 5431 5429 5428 5426 5424
5537 5533 5529 5525 5520 5516 5511 5507 5503 5498 5492 5487 5482 5477 5474 5471 5468 5465 5462 5459 5457 5454 5452 5450 5447 5445 5442 5440 5438 5436 5434 5432 5430 5428 5427 5425 5423 5421 5420 5418 5416 5414 5412
5524 5520 5515 5511 5506 5502 5497 5492 5487 5483 5479 5474 5469 5464 5460 5457 5454 5451 5448 5446 5443 5441 5438 5436 5434 5432 5429 5427 5425 5423 5422 5420 5418 5417 5415 5413 5412 5410 5408 5407 5405 5403 5401
5510 5506 5502 5497 5492 5487 5483 5478 5473 5468 5463 5459 5455 5451 5446 5443 5440 5437 5434 5432 5429 5427 5425 5423 5421 5419 5417 5415 5413 5411 5410 5408 5407 5405 5404 5402 5401 5399 5397 5395 5393 5391 5389
5497 5492 5487 5482 5477 5473 5468 5463 5458 5453 5448 5444 5440 5437 5433 5430 5427 5424 5421 5418 5416 5414 5412 5410 5408 5407 5405 5403 5402 5400 5399 5397 5396 5394 5393 5391 5390 5388 5386 5384 5382 5380 5378
5482 5477 5472 5467 5462 5457 5452 5447 5443 5438 5434 5430 5426 5422 5419 5416 5414 5411 5408 5405 5403 5401 5399 5398 5396 5395 5393 5392 5390 5389 5388 5386 5385 5384 5382 5380 5379 5377 5375 5373 5371 5369 5367
5466 5462 5457 5452 5447 5442 5437 5433 5428 5424 5420 5416 5413 5409 5405 5402 5400 5397 5395 5393 5391 5389 5387 5386 5385 5383 5382 5381 5379 5378 5377 5376 5374 5373 5371 5370 5368 5366 5364 5362 5360 5358 5356
5451 5446 5441 5436 5432 5427 5423 5419 5414 5410 5406 5402 5399 5396 5392 5389 5387 5385 5383 5381 5379 5377 5376 5374 5373 5372 5371 5370 5369 5368 5367 5365 5364 5363 5361 5360 5358 5356 5355 5353 5351 5349 5347
5435 5431 5426 5422 5417 5413 5409 5405 5401 5397 5393 5389 5386 5382 5380 5377 5375 5373 5371 5369 5368 5366 5364 5363 5362 5361 5360 5359 5358 5357 5356 5355 5354 5353 5351 5350 5348 5347 5345 5343 5341 5339 5337
5421 5416 5412 5407 5403 5400 5396 5392 5388 5384 5380 5377 5373 5370 5367 5365 5363 5362 5360 5358 5357 5355 5354 5353 5352 5351 5350 5350 5349 5348 5346 5345 5344 5343 5342 5341 5339 5338 5336 5334 5332 5330 5328
5407 5403 5398 5394 5390 5387 5383 5379 5376 5372 5368 5365 5361 5358 5356 5354 5353 5351 5349 5348 5346 5345 5344 5343 5342 5342 5341 5340 5339 5338 5337 5336 5335 5334 5333 5332 5330 5329 5327 5326 5324 5322 5319